Regional Weather Roundup
Issued by NWS

Home | Current Version | Previous Version | Text Only | Print | Product List | Glossary Off
Versions: 1 2 3 4 5 6 7 8 9 10 11 12 13 14 15 16 17 18 19 20 21 22 23 24 25 26 27 28 29 30 31 32 33 34 35 36 37 38 39 40 41 42 43 44 45 46 47 48 49 50

000
ASUS43 KBIS 081902
RWRND

NORTH DAKOTA REGIONAL WEATHER ROUNDUP
NATIONAL WEATHER SERVICE BISMARCK ND
100 PM CST THU DEC 08 2016

NOTE: "FAIR" INDICATES FEW OR NO CLOUDS BELOW 12,000 FEET WITH NO
SIGNIFICANT WEATHER AND/OR OBSTRUCTIONS TO VISIBILITY.


NDZ001>003-009>011-017-082000-
NORTHWEST NORTH DAKOTA

CITY           SKY/WX    TMP DP  RH WIND       PRES   REMARKS
WILLISTON      MOSUNNY   -2  -9  72 NW10      30.66F WCI -19
MINOT          SUNNY      1  -6  72 W16       30.61F WCI -19
MINOT AFB      SUNNY     -1  -8  74 NW18      30.61S WCI -23
$$

NDZ018>021-031>035-040>046-082000-
SOUTHWEST NORTH DAKOTA

CITY           SKY/WX    TMP DP  RH WIND       PRES   REMARKS
BISMARCK       MOSUNNY    4  -2  76 NW20      30.64S WCI -17
DICKINSON      PTSUNNY   -1  -8  72 NW17      30.55F WCI -22
GARRISON         N/A      1  -7  68 NW20      30.60F WCI -20
HETTINGER ARPT PTSUNNY    0  -7  72 NW15      30.58S WCI -19
$$

NDZ004>008-012>016-024-026-027-054-082000-
NORTHEAST NORTH DAKOTA

CITY           SKY/WX    TMP DP  RH WIND       PRES   REMARKS
GRAND FORKS    LGT SNOW  16  11  80 NW16      30.53S VSB 3/4 WCI   1
GRND FRKS AFB  LGT SNOW  14   8  78 NW15      30.54R WCI  -1
DEVILS LAKE    SUNNY      4  -1  80 NW18      30.55F WCI -16
$$

NDZ022-023-025-028>030-036>039-047>053-082000-
SOUTHEAST NORTH DAKOTA

CITY           SKY/WX    TMP DP  RH WIND       PRES   REMARKS
FARGO          LGT SNOW  17  11  77 NW18      30.53S VSB 1   WCI   1
JAMESTOWN      CLOUDY     5   0  79 NW23      30.56S BLWGSNOWWCI -17
$$





USA.gov is the U.S. government's official web portal to all federal, state and local government web resources and services.